Flag for U.S.A. Weather past 2 weeks in Chattanooga, Tennessee, U.S.A.

Now
33 °F

Fog.


Feels Like: 30 °F
Forecast: 31 / 54 °F
Wind: 3 mph from North

Location: Lovell Field

Current Time: Dec 26, 2014 at 8:09:43 AM

Latest Report: Dec 26, 2014 at 6:53 AM


Visibility: 0 mi

Pressure: 30.33 "Hg

Humidity: 96%

Dew point: 32 °F

Location of ChattanoogaLocation

Historic Weather in Chattanooga — Graph

°F

Chattanooga temperature yesterday

Maximum temperature yesterday: 50 °F (at 2:53 PM)
Minimum temperature yesterday: 34 °F (at 11:53 PM)
Average temperature yesterday: 44 °F

Past Weeks' High & Low Weather Summary

 TemperatureHumidityPressure
High57 °F (Dec 24, 12:00 PM)100% (Dec 16, 4:53 AM)30.42 "Hg (Dec 16, 4:53 AM)
Low27 °F (Dec 15, 7:53 AM)30% (Dec 12, 2:53 PM)29.59 "Hg (Dec 24, 1:58 PM)
Average43 °F75%30.12 "Hg
* Reported Dec 11 6:53 AM — Dec 26 6:53 AM, Chattanooga, Weather by CustomWeather, © 2014

Note: Actual official high and low records may vary slightly from our data, if they occured in-between our weather recording intervals... More about our weather records

Advertising

Chattanooga weather history for previous 24 hours

 ConditionsComfort  
Time TempWeatherWind HumidityBarometerVisibility
6:53 AM
Dec 26
33 °FFog.3 mph96%30.33 "Hg0 mi
5:53 AM33 °FFog.No wind96%30.30 "Hg0 mi
4:53 AM32 °FFog.3 mph100%30.29 "Hg0 mi
4:00 AM31 °FIce fog.No wind96%30.29 "Hg1 mi
3:00 AM31 °FIce fog.No wind92%30.26 "Hg1 mi
1:53 AM33 °FClear.No wind92%30.27 "Hg10 mi
12:53 AM33 °FClear.No wind92%30.25 "Hg7 mi
11:53 PM
Dec 25
34 °FClear.No wind92%30.27 "Hg10 mi
10:53 PM35 °FClear.No wind92%30.26 "Hg10 mi
9:53 PM38 °FClear.No wind86%30.25 "Hg10 mi
8:53 PM38 °FClear.No wind90%30.24 "Hg10 mi
7:53 PM40 °FClear.No wind86%30.24 "Hg10 mi
6:53 PM43 °FClear.No wind74%30.23 "Hg10 mi
5:53 PM48 °FPassing clouds.No wind59%30.24 "Hg10 mi
4:53 PM50 °FPassing clouds.5 mph54%30.24 "Hg10 mi
3:53 PM50 °FPassing clouds.No wind52%30.19 "Hg10 mi
2:53 PM50 °FPassing clouds.3 mph52%30.19 "Hg10 mi
1:53 PM49 °FScattered clouds.3 mph57%30.19 "Hg10 mi
12:53 PM46 °FScattered clouds.No wind58%30.21 "Hg10 mi
11:53 AM47 °FPartly sunny.7 mph56%30.24 "Hg10 mi
10:53 AM45 °FPartly sunny.5 mph63%30.24 "Hg10 mi
9:53 AM44 °FPartly sunny.No wind65%30.21 "Hg10 mi
8:53 AM43 °FPartly sunny.6 mph68%30.19 "Hg10 mi
Weather by CustomWeather, © 2014

See weather overviewHow to use our weather pages